Location: Gwatt
(46.7204°N, 7.6223°E)
Time: 14:44:16
(UTC+00:00)

Transit 2A Rocket - All Passes

Search period start: 25 January 2021 00:00
Search period end: 04 February 2021 00:00
Orbit: 592 x 910 km, 66.7° (Epoch: 25 January)

Date Brightness Start Highest point End Pass type
(mag) Time Alt. Az. Time Alt. Az. Time Alt. Az.
25 Jan - 10:16:43 10° SSE 10:20:43 21° ESE 10:24:30 10° ENE daylight
25 Jan - 11:57:34 10° SW 12:02:56 65° NW 12:07:51 10° NNE daylight
25 Jan - 13:43:20 10° WNW 13:46:22 16° NNW 13:49:16 10° N daylight
25 Jan - 18:56:31 10° NNW 19:00:26 29° NE 19:04:14 10° ESE visible
25 Jan - 20:39:00 10° NW 20:43:02 37° WSW 20:46:58 10° S visible
26 Jan - 09:36:21 10° SE 09:38:25 12° ESE 09:40:25 10° E daylight
26 Jan - 11:14:53 10° SSW 11:20:19 79° ESE 11:25:17 10° NE daylight
26 Jan - 12:59:23 10° W 13:03:22 22° NW 13:07:08 10° N daylight
26 Jan - 18:14:15 10° N 18:17:33 20° NE 18:20:45 10° E visible
26 Jan - 19:56:11 10° NW 20:00:34 68° WSW 20:04:48 10° SSE visible
27 Jan - 10:32:34 10° S 10:37:47 48° ESE 10:42:34 10° NE daylight
27 Jan - 12:15:49 10° WSW 12:20:30 31° NW 12:24:51 10° NNE daylight
27 Jan - 17:32:11 10° N 17:34:32 14° NNE 17:36:50 10° ENE visible
27 Jan - 19:13:34 10° NNW 19:17:58 68° NE 19:22:15 10° SE visible
27 Jan - 20:57:38 10° WNW 20:59:53 14° WSW 21:02:08 10° SW visible
28 Jan - 09:50:43 10° S 09:55:19 29° ESE 09:59:37 10° NE daylight
28 Jan - 11:32:34 10° SW 11:37:43 48° NW 11:42:27 10° NNE daylight
28 Jan - 13:19:16 10° NW 13:21:24 13° NNW 13:23:28 10° N daylight
28 Jan - 16:51:13 10° NNE 16:51:24 10° NNE 16:51:35 10° NNE daylight
28 Jan - 18:31:06 10° NNW 18:35:17 40° NE 18:39:20 10° ESE visible
28 Jan - 20:14:01 10° WNW 20:17:35 25° WSW 20:21:07 10° SSW visible
29 Jan - 09:09:30 10° SSE 09:12:57 17° ESE 09:16:14 10° ENE daylight
29 Jan - 10:49:40 10° SW 10:55:03 77° NW 10:59:58 10° NNE daylight
29 Jan - 12:34:59 10° WNW 12:38:20 17° NW 12:41:32 10° N daylight
29 Jan - 17:48:45 10° NNW 17:52:27 25° NE 17:56:03 10° E visible
29 Jan - 19:31:01 10° NW 19:35:12 45° WSW 19:39:17 10° S visible
30 Jan - 10:07:06 10° SSW 10:12:28 66° ESE 10:17:21 10° NE daylight
30 Jan - 11:51:11 10° W 11:55:23 24° NW 11:59:21 10° NNE daylight
30 Jan - 17:06:32 10° N 17:09:32 17° NE 17:12:26 10° ENE visible
30 Jan - 18:48:17 10° NW 18:52:41 83° WSW 18:56:58 10° SSE visible
31 Jan - 09:24:57 10° S 09:29:57 40° ESE 09:34:34 10° NE daylight
31 Jan - 11:07:43 10° WSW 11:12:33 36° NW 11:17:01 10° NNE daylight
31 Jan - 12:55:59 10° NNW 12:56:29 10° NNW 12:56:58 10° NNW daylight
31 Jan - 16:24:37 10° N 16:26:28 12° NNE 16:28:17 10° NE daylight
31 Jan - 18:05:43 10° NNW 18:10:03 56° NE 18:14:17 10° SE visible
31 Jan - 19:49:16 10° WNW 19:52:07 17° WSW 19:54:57 10° SSW visible
01 Feb - 08:43:17 10° SSE 08:47:31 24° ESE 08:51:30 10° ENE daylight
01 Feb - 10:24:36 10° SW 10:29:49 56° NW 10:34:36 10° NNE daylight
01 Feb - 12:10:48 10° WNW 12:13:21 14° NNW 12:15:49 10° N daylight
01 Feb - 17:23:18 10° NNW 17:27:20 33° NE 17:31:14 10° ESE visible
01 Feb - 19:05:57 10° NW 19:09:47 31° WSW 19:13:34 10° S visible
02 Feb - 08:02:29 10° SE 08:05:10 14° ESE 08:07:47 10° ENE daylight
02 Feb - 09:41:49 10° SSW 09:47:11 90° N 09:52:04 10° NE daylight
02 Feb - 11:26:42 10° W 11:30:20 19° NW 11:33:46 10° N daylight
02 Feb - 16:41:00 10° NNW 16:44:28 22° NE 16:47:50 10° E daylight
02 Feb - 18:23:03 10° NW 18:27:20 56° WSW 18:31:32 10° SSE visible
03 Feb - 08:59:23 10° SSW 09:04:37 55° ESE 09:09:24 10° NE daylight
03 Feb - 10:43:00 10° WSW 10:47:25 28° NW 10:51:32 10° NNE daylight
03 Feb - 15:58:52 10° N 16:01:29 15° NNE 16:04:02 10° ENE daylight
03 Feb - 17:40:24 10° NNW 17:44:47 80° NE 17:49:05 10° SE visible
03 Feb - 19:25:07 10° W 19:26:36 12° WSW 19:28:06 10° SW visible
